Hollywood, FL

9:37 AM EST on February 22, 2017 (GMT -0500)
North Perry

Weather History for KHWO - October, 2012

Change the Weather History Date:

Monday, October 15, 2012

  Actual Average (KFLL) Record (KFLL)
Temperature  
Mean Temperature 81 °F -  
Max Temperature 88 °F 84 °F 92 °F (1925)
Min Temperature 75 °F 71 °F 57 °F (1955)
Cooling Degree Days 16    
Growing Degree Days 31 (Base 50)    
Moisture  
Dew Point 73 °F    
Average Humidity 80    
Maximum Humidity 94    
Minimum Humidity 59    
Precipitation  
Precipitation 0.01 in - - ()
Sea Level Pressure  
Sea Level Pressure 29.88 in    
Wind  
Wind Speed 6 mph (NE)    
Max Wind Speed 16 mph    
Max Gust Speed 20 mph    
Visibility 9 miles    
Events Rain    
Averages and records for this station are not official NWS values.
T = Trace of Precipitation, MM = Missing Value Source: NWS Daily Summary

Daily Weather History Graph

Daily Weather History Graph

Search for Another Location

Airport or City:

Trip Planner

Search our weather history database for the weather conditions in past years. The results will help you decide how hot, cold, wet, or windy it might be!

Date:

Astronomy

Oct. 15, 2012 Rise Set
Actual Time 7:20 AM EDT 6:52 PM EDT
Civil Twilight 6:56 AM EDT 7:15 PM EDT
Nautical Twilight 6:30 AM EDT 7:42 PM EDT
Astronomical Twilight 6:03 AM EDT 8:09 PM EDT
Moon 7:23 AM EDT (10/15) 6:59 PM EDT (10/15)
Length of Visible Light 12h 19m
Length of Day
11h 32m
New Moon, 0% of the Moon is Illuminated
Oct 15
New Moon
Oct 21
First Quarter
Oct 29
Full
Nov 6
Last Quarter
Nov 13
New

Hourly Weather History & Observations

Time (EDT) Temp. Heat Index Dew Point Humidity Pressure Visibility Wind Dir Wind Speed Gust Speed Precip Events Conditions
12:53 AM 78.1 °F - 73.9 °F 87% 29.95 in 9.0 mi ENE 5.8 mph - N/A   Partly Cloudy
1:53 AM 78.1 °F - 73.9 °F 87% 29.93 in 9.0 mi East 5.8 mph - N/A   Partly Cloudy
2:53 AM 77.0 °F - 73.0 °F 88% 29.91 in 10.0 mi East 3.5 mph - N/A   Clear
3:53 AM 75.9 °F - 73.0 °F 91% 29.89 in 10.0 mi NE 3.5 mph - N/A   Scattered Clouds
4:53 AM 75.0 °F - 73.0 °F 94% 29.88 in 10.0 mi East 4.6 mph - N/A   Partly Cloudy
5:32 AM 77.0 °F - 73.4 °F 89% 29.88 in 6.0 mi NE 3.5 mph - 0.01 in Rain Light Rain
5:53 AM 77.0 °F - 73.9 °F 90% 29.87 in 7.0 mi East 4.6 mph - 0.01 in Rain Light Rain
6:12 AM 77.0 °F - 73.4 °F 89% 29.87 in 8.0 mi Calm Calm - 0.00 in   Mostly Cloudy
6:28 AM 77.0 °F - 73.4 °F 89% 29.87 in 8.0 mi NNE 4.6 mph - 0.00 in   Mostly Cloudy
6:41 AM 75.2 °F - 73.4 °F 94% 29.88 in 8.0 mi Calm Calm - 0.00 in   Mostly Cloudy
6:53 AM 75.9 °F - 73.0 °F 91% 29.88 in 8.0 mi NNE 3.5 mph - 0.00 in   Mostly Cloudy
7:13 AM 77.0 °F - 73.4 °F 89% 29.89 in 8.0 mi NE 4.6 mph - N/A   Mostly Cloudy
7:46 AM 77.0 °F - 73.4 °F 89% 29.90 in 6.0 mi NNE 3.5 mph - 0.00 in   Overcast
7:53 AM 78.1 °F - 75.0 °F 90% 29.90 in 6.0 mi NE 3.5 mph - 0.00 in   Overcast
8:00 AM 78.8 °F - 75.2 °F 89% 29.90 in 7.0 mi Calm Calm - N/A   Overcast
8:26 AM 77.0 °F - 73.4 °F 89% 29.91 in 9.0 mi SW 3.5 mph - N/A   Overcast
8:44 AM 78.8 °F - 75.2 °F 89% 29.91 in 10.0 mi Calm Calm - N/A   Overcast
8:53 AM 79.0 °F - 75.9 °F 90% 29.91 in 9.0 mi Calm Calm - N/A   Overcast
9:40 AM 82.4 °F 88.2 °F 73.4 °F 74% 29.91 in 8.0 mi NE 11.5 mph - N/A   Mostly Cloudy
9:53 AM 82.9 °F 88.8 °F 73.0 °F 72% 29.91 in 8.0 mi ENE 16.1 mph 19.6 mph N/A   Mostly Cloudy
10:03 AM 82.4 °F 88.2 °F 73.4 °F 74% 29.91 in 8.0 mi ENE 12.7 mph - N/A   Scattered Clouds
10:53 AM 84.0 °F 90.2 °F 73.0 °F 69% 29.92 in 9.0 mi NE 10.4 mph - N/A   Overcast
11:53 AM 84.9 °F 91.4 °F 73.0 °F 67% 29.91 in 9.0 mi NE 10.4 mph - N/A   Scattered Clouds
12:53 PM 86.0 °F 92.2 °F 72.0 °F 63% 29.90 in 10.0 mi ENE 13.8 mph 19.6 mph N/A   Scattered Clouds
1:53 PM 86.0 °F 91.5 °F 71.1 °F 61% 29.87 in 10.0 mi ENE 11.5 mph - N/A   Partly Cloudy
2:53 PM 87.1 °F 92.8 °F 71.1 °F 59% 29.84 in 10.0 mi ENE 12.7 mph 16.1 mph N/A   Partly Cloudy
3:53 PM 87.1 °F 93.6 °F 72.0 °F 61% 29.82 in 10.0 mi NE 9.2 mph 17.3 mph N/A   Clear
4:53 PM 86.0 °F 91.5 °F 71.1 °F 61% 29.82 in 10.0 mi ENE 13.8 mph - N/A   Clear
5:53 PM 82.9 °F 87.0 °F 70.0 °F 65% 29.82 in 10.0 mi NE 11.5 mph - N/A   Clear
6:53 PM 81.0 °F 84.9 °F 71.1 °F 72% 29.82 in 10.0 mi NE 8.1 mph - N/A   Clear
7:53 PM 80.1 °F 83.6 °F 71.1 °F 74% 29.82 in 10.0 mi NE 8.1 mph - N/A   Clear
8:53 PM 79.0 °F - 72.0 °F 79% 29.83 in 10.0 mi NE 5.8 mph - N/A   Clear
9:53 PM 78.1 °F - 72.0 °F 81% 29.85 in 10.0 mi North 5.8 mph - N/A   Clear
10:53 PM 78.1 °F - 72.0 °F 81% 29.85 in 10.0 mi NNW 3.5 mph - N/A   Clear
11:53 PM 77.0 °F - 72.0 °F 84% 29.86 in 10.0 mi NNW 6.9 mph - N/A   Clear